EJU31LH LOWW-LIML

Flight info

Callsign EJU31LH
Flight time 1h 0m
Altitude 30000
Route OSPEN DCT ABRUK DCT SETAL DCT DETSA DCT BAKOR DCT RENTA DCT ATPED DCT LUSIL
Aircraft A319/M-SDE3FGHIRWY/LB1

Departure

Time 2026-04-24 20:07
Airport Vienna International Airport (LOWW)

Arrival

Time 2026-04-24 21:07
Airport Milano Linate Airport (LIML)
Time Latitude Longitude Altitude Speed Heading
2026-04-24 19:49 48.12122 16.55688 618 ft 0 kts 116°
2026-04-24 19:52 48.12122 16.55687 618 ft 0 kts 116°
2026-04-24 19:56 48.12124 16.55681 610 ft 3 kts 116°
2026-04-24 19:56 48.12138 16.55647 621 ft 4 kts 119°
2026-04-24 19:56 48.12143 16.55615 613 ft 4 kts 77°
2026-04-24 19:56 48.12128 16.55592 622 ft 4 kts 34°
2026-04-24 19:57 48.12114 16.55581 615 ft 4 kts 21°
2026-04-24 19:57 48.12109 16.55578 617 ft 1 kts 26°
2026-04-24 19:57 48.12104 16.55583 622 ft 0 kts 163°
2026-04-24 19:57 48.12096 16.55573 625 ft 4 kts 229°
2026-04-24 19:58 48.12087 16.55562 616 ft 0 kts 214°
2026-04-24 20:00 48.12078 16.55555 612 ft 4 kts 208°
2026-04-24 20:00 48.12017 16.55511 610 ft 11 kts 206°
2026-04-24 20:00 48.11967 16.55474 610 ft 14 kts 205°
2026-04-24 20:00 48.11873 16.55433 610 ft 15 kts 187°
2026-04-24 20:01 48.11791 16.55492 614 ft 15 kts 115°
2026-04-24 20:01 48.11745 16.55631 620 ft 15 kts 115°
2026-04-24 20:01 48.11697 16.55777 615 ft 16 kts 116°
2026-04-24 20:01 48.11647 16.55930 613 ft 17 kts 116°
2026-04-24 20:02 48.11596 16.56089 618 ft 17 kts 115°
2026-04-24 20:02 48.11542 16.56256 622 ft 18 kts 116°
2026-04-24 20:02 48.11485 16.56429 618 ft 19 kts 116°
2026-04-24 20:02 48.11426 16.56609 620 ft 19 kts 116°
2026-04-24 20:03 48.11366 16.56794 617 ft 20 kts 116°
2026-04-24 20:03 48.11304 16.56986 613 ft 21 kts 116°
2026-04-24 20:03 48.11239 16.57183 617 ft 21 kts 116°
2026-04-24 20:03 48.11174 16.57386 610 ft 21 kts 115°
2026-04-24 20:04 48.11130 16.57515 616 ft 8 kts 122°
2026-04-24 20:04 48.11094 16.57534 617 ft 6 kts 185°
2026-04-24 20:04 48.11057 16.57513 615 ft 3 kts 206°
2026-04-24 20:04 48.11053 16.57509 610 ft 0 kts 208°
2026-04-24 20:05 48.11050 16.57507 610 ft 2 kts 208°
2026-04-24 20:05 48.11032 16.57493 610 ft 4 kts 206°
2026-04-24 20:05 48.10996 16.57466 610 ft 7 kts 206°
2026-04-24 20:06 48.10961 16.57403 612 ft 9 kts 270°
2026-04-24 20:06 48.10983 16.57326 619 ft 6 kts 298°
2026-04-24 20:06 48.10985 16.57318 617 ft 0 kts 297°
2026-04-24 20:06 48.10986 16.57316 616 ft 1 kts 297°
2026-04-24 20:07 48.10992 16.57298 614 ft 8 kts 296°
2026-04-24 20:07 48.11241 16.56531 612 ft 113 kts 296°
2026-04-24 20:07 48.11676 16.55195 744 ft 158 kts 296°
2026-04-24 20:07 48.12112 16.53659 1396 ft 164 kts 284°
2026-04-24 20:08 48.11901 16.51946 2015 ft 183 kts 242°
2026-04-24 20:08 48.10883 16.50565 2399 ft 212 kts 219°
2026-04-24 20:08 48.09647 16.49258 3065 ft 222 kts 219°
2026-04-24 20:08 48.08384 16.47929 4022 ft 222 kts 220°
2026-04-24 20:09 48.07157 16.46519 4926 ft 228 kts 227°
2026-04-24 20:09 48.05903 16.44872 5449 ft 252 kts 227°
2026-04-24 20:09 48.04539 16.43071 6176 ft 268 kts 226°
2026-04-24 20:09 48.03127 16.41219 7157 ft 273 kts 226°
2026-04-24 20:10 48.01683 16.39336 8104 ft 279 kts 226°
2026-04-24 20:10 48.00201 16.37409 9038 ft 286 kts 226°
2026-04-24 20:10 47.98682 16.35433 9980 ft 293 kts 226°
2026-04-24 20:10 47.97108 16.33374 10522 ft 313 kts 226°
2026-04-24 20:11 47.95492 16.31067 11028 ft 327 kts 233°
2026-04-24 20:11 47.93966 16.28487 11816 ft 335 kts 232°
2026-04-24 20:11 47.92405 16.25877 12652 ft 340 kts 232°
2026-04-24 20:11 47.90812 16.23233 13493 ft 345 kts 231°
2026-04-24 20:12 47.89199 16.20561 14254 ft 351 kts 231°
2026-04-24 20:12 47.87553 16.17835 15005 ft 355 kts 231°
2026-04-24 20:12 47.85893 16.15085 15734 ft 359 kts 231°
2026-04-24 20:12 47.84216 16.12304 16478 ft 363 kts 231°
2026-04-24 20:13 47.82520 16.09488 17219 ft 367 kts 231°
2026-04-24 20:13 47.80810 16.06641 17972 ft 371 kts 231°
2026-04-24 20:13 47.79080 16.03767 18645 ft 375 kts 231°
2026-04-24 20:13 47.77326 16.00863 19302 ft 379 kts 231°
2026-04-24 20:14 47.75559 15.97941 19971 ft 382 kts 231°
2026-04-24 20:14 47.73777 15.94996 20618 ft 385 kts 231°
2026-04-24 20:14 47.71975 15.92023 21266 ft 388 kts 230°
2026-04-24 20:14 47.70161 15.89035 21909 ft 392 kts 230°
2026-04-24 20:15 47.68325 15.86017 22544 ft 395 kts 230°
2026-04-24 20:15 47.66472 15.82976 23178 ft 399 kts 230°
2026-04-24 20:15 47.64604 15.79910 23784 ft 403 kts 230°
2026-04-24 20:15 47.62717 15.76817 24296 ft 406 kts 230°
2026-04-24 20:16 47.60816 15.73705 24813 ft 409 kts 230°
2026-04-24 20:16 47.58898 15.70562 25324 ft 412 kts 230°
2026-04-24 20:16 47.56967 15.67400 25815 ft 416 kts 230°
2026-04-24 20:16 47.55018 15.64220 26290 ft 419 kts 230°
2026-04-24 20:17 47.53050 15.61018 26787 ft 422 kts 230°
2026-04-24 20:17 47.49312 15.54283 27700 ft 425 kts 242°
2026-04-24 20:17 47.48072 15.50330 28147 ft 425 kts 253°
2026-04-24 20:18 47.47512 15.47566 28447 ft 425 kts 258°
2026-04-24 20:18 47.46497 15.41888 29065 ft 429 kts 257°
2026-04-24 20:18 47.45675 15.37627 29514 ft 432 kts 256°
2026-04-24 20:18 47.44819 15.33350 29941 ft 436 kts 255°
2026-04-24 20:19 47.43948 15.29051 30092 ft 434 kts 255°
2026-04-24 20:19 47.43101 15.24872 30093 ft 416 kts 255°
2026-04-24 20:19 47.42293 15.20857 30094 ft 404 kts 256°
2026-04-24 20:19 47.41501 15.16872 30094 ft 404 kts 256°
2026-04-24 20:20 47.39931 15.08861 30100 ft 415 kts 256°
2026-04-24 20:20 47.38316 15.00654 30101 ft 418 kts 256°
2026-04-24 20:21 47.36676 14.92424 30106 ft 418 kts 256°
2026-04-24 20:21 47.35027 14.84188 30508 ft 419 kts 255°
2026-04-24 20:22 47.34199 14.80075 31093 ft 417 kts 255°
2026-04-24 20:22 47.33372 14.75982 31653 ft 416 kts 255°
2026-04-24 20:22 47.32546 14.71893 32032 ft 416 kts 255°
2026-04-24 20:22 47.31722 14.67802 32102 ft 415 kts 255°
2026-04-24 20:23 47.30079 14.59651 32107 ft 414 kts 255°
2026-04-24 20:23 47.28429 14.51518 32107 ft 414 kts 255°
2026-04-24 20:24 47.26764 14.43403 32109 ft 414 kts 255°
2026-04-24 20:24 47.25114 14.35345 32104 ft 414 kts 255°
2026-04-24 20:25 47.23446 14.27230 32099 ft 414 kts 255°
2026-04-24 20:25 47.21776 14.19131 32094 ft 414 kts 255°
2026-04-24 20:26 47.20090 14.11043 32093 ft 414 kts 255°
2026-04-24 20:26 47.18399 14.02957 32079 ft 413 kts 255°
2026-04-24 20:27 47.16707 13.94879 32078 ft 414 kts 255°
2026-04-24 20:27 47.15017 13.86800 32073 ft 413 kts 255°
2026-04-24 20:28 47.13317 13.78732 32077 ft 414 kts 255°
2026-04-24 20:28 47.11858 13.71981 32075 ft 414 kts 254°
2026-04-24 20:29 47.10148 13.63971 32075 ft 414 kts 255°
2026-04-24 20:29 47.08442 13.55899 32078 ft 415 kts 255°
2026-04-24 20:30 47.06718 13.47816 32077 ft 415 kts 255°
2026-04-24 20:30 47.04986 13.39744 32078 ft 415 kts 255°
2026-04-24 20:31 47.03243 13.31673 32075 ft 415 kts 254°
2026-04-24 20:31 47.01486 13.23613 32078 ft 415 kts 254°
2026-04-24 20:32 46.99730 13.15553 32077 ft 415 kts 254°
2026-04-24 20:32 46.97974 13.07499 32082 ft 415 kts 254°
2026-04-24 20:33 46.96211 12.99459 32080 ft 415 kts 253°
2026-04-24 20:33 46.94434 12.91436 32078 ft 414 kts 253°
2026-04-24 20:34 46.92662 12.83422 32079 ft 415 kts 253°
2026-04-24 20:34 46.90882 12.75396 32076 ft 414 kts 253°
2026-04-24 20:35 46.89097 12.67389 32079 ft 414 kts 253°
2026-04-24 20:35 46.87307 12.59383 32100 ft 414 kts 253°
2026-04-24 20:36 46.85509 12.51380 32119 ft 414 kts 253°
2026-04-24 20:36 46.83708 12.43390 32141 ft 414 kts 253°
2026-04-24 20:37 46.81909 12.35456 32163 ft 414 kts 253°
2026-04-24 20:37 46.80016 12.27508 32174 ft 415 kts 246°
2026-04-24 20:38 46.77417 12.19947 32171 ft 416 kts 244°
2026-04-24 20:38 46.74792 12.12428 32175 ft 415 kts 244°
2026-04-24 20:39 46.72192 12.04968 32159 ft 415 kts 244°
2026-04-24 20:39 46.69568 11.97465 32138 ft 415 kts 244°
2026-04-24 20:40 46.66937 11.89970 32109 ft 416 kts 244°
2026-04-24 20:40 46.64297 11.82483 32080 ft 416 kts 243°
2026-04-24 20:41 46.61648 11.75010 32046 ft 416 kts 243°
2026-04-24 20:41 46.59013 11.67521 32037 ft 416 kts 244°
2026-04-24 20:42 46.56420 11.59998 32034 ft 416 kts 244°
2026-04-24 20:42 46.53827 11.52469 32024 ft 417 kts 244°
2026-04-24 20:43 46.51216 11.44945 32016 ft 417 kts 244°
2026-04-24 20:43 46.48596 11.37457 32015 ft 416 kts 244°
2026-04-24 20:44 46.45979 11.29959 32016 ft 415 kts 243°
2026-04-24 20:44 46.43356 11.22503 32015 ft 415 kts 243°
2026-04-24 20:45 46.40731 11.15061 32179 ft 415 kts 243°
2026-04-24 20:45 46.38102 11.07620 32177 ft 414 kts 243°
2026-04-24 20:46 46.35916 11.01449 32184 ft 415 kts 243°
2026-04-24 20:46 46.33280 10.94027 32172 ft 414 kts 243°
2026-04-24 20:47 46.30636 10.86617 32167 ft 414 kts 243°
2026-04-24 20:47 46.28025 10.79165 32160 ft 415 kts 243°
2026-04-24 20:48 46.25452 10.71700 32147 ft 415 kts 243°
2026-04-24 20:48 46.22844 10.64187 32161 ft 432 kts 243°
2026-04-24 20:49 46.21474 10.60258 32146 ft 445 kts 243°
2026-04-24 20:49 46.20066 10.56231 32143 ft 451 kts 243°
2026-04-24 20:49 46.17214 10.48114 32133 ft 454 kts 243°
2026-04-24 20:50 46.14343 10.39991 32125 ft 454 kts 243°
2026-04-24 20:50 46.11483 10.31889 32115 ft 454 kts 243°
2026-04-24 20:51 46.08608 10.23778 32103 ft 454 kts 243°
2026-04-24 20:51 46.05674 10.15732 32085 ft 453 kts 237°
2026-04-24 20:52 46.03686 10.12227 32080 ft 451 kts 223°
2026-04-24 20:52 46.01261 10.09519 31435 ft 439 kts 209°
2026-04-24 20:52 45.98548 10.07536 30287 ft 438 kts 205°
2026-04-24 20:52 45.95848 10.05696 29287 ft 433 kts 204°
2026-04-24 20:53 45.93141 10.03873 28295 ft 427 kts 204°
2026-04-24 20:53 45.90487 10.02084 27328 ft 422 kts 204°
2026-04-24 20:53 45.87853 10.00295 26404 ft 417 kts 204°
2026-04-24 20:53 45.85257 9.98513 25513 ft 412 kts 205°
2026-04-24 20:54 45.82687 9.96737 24672 ft 408 kts 205°
2026-04-24 20:54 45.80151 9.94977 23868 ft 404 kts 205°
2026-04-24 20:54 45.77628 9.93228 23021 ft 400 kts 205°
2026-04-24 20:54 45.75135 9.91509 22191 ft 395 kts 205°
2026-04-24 20:55 45.72672 9.89821 21394 ft 391 kts 205°
2026-04-24 20:55 45.70236 9.88158 20610 ft 385 kts 205°
2026-04-24 20:55 45.67828 9.86517 19843 ft 380 kts 205°
2026-04-24 20:55 45.65455 9.84898 19093 ft 375 kts 205°
2026-04-24 20:56 45.63117 9.83288 18361 ft 371 kts 206°
2026-04-24 20:56 45.60825 9.81656 17524 ft 367 kts 207°
2026-04-24 20:56 45.58562 9.80009 16732 ft 363 kts 207°
2026-04-24 20:56 45.56333 9.78367 15948 ft 359 kts 207°
2026-04-24 20:57 45.54124 9.76745 15183 ft 355 kts 207°
2026-04-24 20:57 45.51933 9.75148 14447 ft 352 kts 207°
2026-04-24 20:57 45.49757 9.73575 13763 ft 349 kts 207°
2026-04-24 20:57 45.47600 9.72022 13060 ft 344 kts 207°
2026-04-24 20:58 45.45531 9.70532 12858 ft 323 kts 207°
2026-04-24 20:58 45.43554 9.69106 12390 ft 315 kts 207°
2026-04-24 20:58 45.41616 9.67711 11839 ft 311 kts 207°
2026-04-24 20:58 45.39697 9.66334 11250 ft 307 kts 207°
2026-04-24 20:59 45.37800 9.64971 10678 ft 304 kts 207°
2026-04-24 20:59 45.35922 9.63622 10096 ft 301 kts 206°
2026-04-24 20:59 45.34058 9.62287 9482 ft 298 kts 206°
2026-04-24 20:59 45.32229 9.60980 8996 ft 291 kts 206°
2026-04-24 21:00 45.30442 9.59700 8557 ft 282 kts 207°
2026-04-24 21:00 45.28717 9.58463 8133 ft 273 kts 207°
2026-04-24 21:00 45.27047 9.57267 7710 ft 266 kts 207°
2026-04-24 21:00 45.25401 9.56045 7300 ft 268 kts 212°
2026-04-24 21:01 45.24010 9.54309 6898 ft 268 kts 232°
2026-04-24 21:01 45.23074 9.52028 6463 ft 269 kts 251°
2026-04-24 21:01 45.22695 9.49434 5997 ft 270 kts 269°
2026-04-24 21:01 45.22725 9.46769 5541 ft 271 kts 272°
2026-04-24 21:02 45.22762 9.44086 5046 ft 273 kts 272°
2026-04-24 21:02 45.22790 9.41427 4858 ft 263 kts 271°
2026-04-24 21:02 45.22813 9.38892 4764 ft 251 kts 271°
2026-04-24 21:02 45.22832 9.36476 4662 ft 240 kts 271°
2026-04-24 21:03 45.22853 9.34164 4552 ft 230 kts 271°
2026-04-24 21:03 45.22943 9.31982 4440 ft 220 kts 284°
2026-04-24 21:03 45.23766 9.30285 4329 ft 209 kts 327°
2026-04-24 21:03 45.25153 9.29733 4011 ft 211 kts 355°
2026-04-24 21:04 45.26647 9.29603 3622 ft 218 kts 356°
2026-04-24 21:04 45.28172 9.29459 3315 ft 220 kts 356°
2026-04-24 21:04 45.29701 9.29299 3020 ft 221 kts 355°
2026-04-24 21:04 45.31232 9.29135 2732 ft 221 kts 355°
2026-04-24 21:05 45.32771 9.28969 2446 ft 222 kts 355°
2026-04-24 21:05 45.34320 9.28803 2155 ft 225 kts 354°
2026-04-24 21:05 45.35859 9.28638 1853 ft 217 kts 353°
2026-04-24 21:05 45.37336 9.28480 1576 ft 209 kts 354°
2026-04-24 21:06 45.38749 9.28328 1299 ft 199 kts 354°
2026-04-24 21:06 45.40084 9.28185 1053 ft 183 kts 354°
2026-04-24 21:06 45.41260 9.28059 817 ft 157 kts 353°
2026-04-24 21:06 45.42286 9.27947 620 ft 139 kts 353°
2026-04-24 21:07 45.43217 9.27849 448 ft 131 kts 352°
2026-04-24 21:07 45.43825 9.27781 371 ft 125 kts 353°
2026-04-24 21:07 45.44599 9.27696 362 ft 75 kts 355°
2026-04-24 21:07 45.44979 9.27655 361 ft 45 kts 354°
2026-04-24 21:08 45.45259 9.27638 358 ft 33 kts
2026-04-24 21:08 45.45404 9.27727 362 ft 11 kts 28°
2026-04-24 21:08 45.45444 9.27769 360 ft 4 kts 52°
2026-04-24 21:08 45.45464 9.27801 360 ft 5 kts 40°
2026-04-24 21:09 45.45498 9.27814 360 ft 6 kts
2026-04-24 21:09 45.45557 9.27815 360 ft 11 kts
2026-04-24 21:09 45.45653 9.27816 360 ft 17 kts
2026-04-24 21:09 45.45728 9.27821 360 ft 4 kts 19°
2026-04-24 21:10 45.45735 9.27861 360 ft 5 kts 92°
2026-04-24 21:10 45.45735 9.27895 360 ft 0 kts 90°
2026-04-24 21:10 45.45735 9.27897 360 ft 0 kts 90°